Location: Alphen
(52.1351°N, 4.6549°E)
Time: 01:28:06
(UTC+00:00)

PSLV R/B - Pass Details

Date: 27 January 2021
Orbit: 567 x 598 km, 98.2° (Epoch: 26 February)

Event Time Altitude Azimuth Distance (km) Brightness Sun altitude
Rises 05:08:32 0° 165° (SSE) 2,797 7.7 -21.4°
Reaches altitude 10° 05:10:40 10° 166° (SSE) 1,907 6.8 -21.0°
Maximum altitude 05:14:49 84° 253° (WSW) 601 3.8 -20.4°
Enters shadow 05:17:46 19° 343° (NNW) 1,428 5.7 -19.9°
